Regional Weather Roundup
Issued by NWS

Home | Current Version | Previous Version | Text Only | Print | Product List | Glossary Off
Versions: 1 2 3 4 5 6 7 8 9 10 11 12 13 14 15 16 17 18 19 20 21 22 23 24 25 26 27 28 29 30 31 32 33 34 35 36 37 38 39 40 41 42 43 44 45 46 47 48 49 50

000
ASUS45 KSLC 221210
RWRUT

UTAH REGIONAL WEATHER ROUNDUP
NATIONAL WEATHER SERVICE SALT LAKE CITY UT
500 AM MST MON DEC 22 2014

UTZ001>011-023>025-221300-

NORTHERN UTAH

CITY           SKY/WX    TMP DP  RH WIND       PRES   REMARKS
BRIGHAM CITY   CLOUDY    39  33  80 CALM      29.99F
HILL AFB       CLOUDY    39  36  90 S10       29.98F WCI  32
LOGAN          CLOUDY    40  30  67 VRB6      29.97F
OGDEN          CLOUDY    40  35  83 SE5       29.98F
PROVO AIRPORT  CLOUDY    37  36  93 SW3       30.03F
SALT LAKE CITY LGT RAIN  39  38  96 S6        30.01F FOG     WCI  35
VERNAL         CLOUDY    35  30  82 E5        29.86F WCI  31
WENDOVER       CLOUDY    43  36  75 CALM      30.01S
HEBER CITY     MIX PCPN  34  34 100 CALM      29.95F
WEST JORDAN    CLOUDY    36  36 100 SW5       30.02F WCI  32

$$

UTZ012>022-026-027-221300-

SOUTHERN/CENTRAL UTAH

CITY           SKY/WX    TMP DP  RH WIND       PRES   REMARKS
BLANDING       PTCLDY    32  31  94 NE5       30.01R WCI  28
BRYCE CANYON   PTCLDY    38  31  76 W18G25    30.06F WCI  28
CEDAR CITY     PTCLDY    39  32  76 S6        30.06F WCI  35
DELTA          CLOUDY    40  39  95 SW7       30.02F
MILFORD        PTCLDY    33  30  88 W6        30.04F WCI  28
MOAB/CYNLANDS  CLEAR     32  30  92 CALM      29.91S
PRICE          PTCLDY    39  27  62 W9        29.91F WCI  33
ST GEORGE      CLOUDY    37  30  75 S3        30.09S
KANAB          CLEAR     30  30 100 N3        30.09S

$$

REGIONAL REPORTS     COLORADO/ARIZONA

CITY           SKY/WX    TMP DP  RH WIND       PRES   REMARKS
CRAIG, CO      CLOUDY    33  25  72 W15       29.85F WCI  23
GRAND JUNCTION CLOUDY    32  31  96 E7        29.88F WCI  26
RIFLE          CLOUDY    35  31  85 CALM      29.88S
MONTROSE       CLOUDY    32  30  92 SE6       29.91S WCI  26
CORTEZ         CLOUDY    33  30  88 NE6       29.95S WCI  28
PAGE, AZ       PTCLDY    37  31  78 W5        29.98S WCI  33
GRAND CANYON   PTCLDY    24  23  96 CALM      30.09F
KINGMAN        CLEAR     39  34  82 SE10      30.08S WCI  32
FLAGSTAFF      MOCLDY    42  30  62 VRB3      30.07F

$$

REGIONAL REPORTS    NEVADA/IDAHO/WYOMING

CITY           SKY/WX    TMP DP  RH WIND       PRES   REMARKS
LAS VEGAS, NV  PTCLDY    45  38  76 SW7       30.04S
ELY            CLOUDY    44  36  73 CALM      30.15R
ELKO           CLOUDY    44  40  85 W14       30.09F
POCATELLO, ID  CLOUDY    35  34  96 W14       29.97F WCI  26
BURLEY         CLOUDY    37  34  89 W15G24    29.98F WCI  28
EVANSTON, WY   CLOUDY    30  27  88 W17       29.92F WCI  18
ROCK SPRINGS   CLOUDY    28  23  81 NW17      29.85F WCI  16
KEMMERER       FLURRIES  28  27  93 W17G24    29.89R WCI  16

$$


USA.gov is the U.S. government's official web portal to all federal, state and local government web resources and services.